SL-12 R/B(AUX MOTOR), 32281

Orbit data source: Space-Track

SL-12 R/B(AUX MOTOR), 32281 is space debris in HEO originally from a launch on Fri, 26 Oct 2007 UTC launched from the Tyuratam Missile And Space Complex (TTMTR). Debris objects in space refer to the collection of defunct objects orbiting the Earth. Examples of debris include non-operational satellites, rocket bodies, and fragments generated from explosions, collisions, or faulty payload assembly.

Loading next visibility...
SL-12 R/B(AUX MOTOR) details
Identifier
32281, 2007-052G
Orbit
HEO
Last TLE update2 days ago
Origin
Flag of CISKVR (CIS)
ManufacturerRKKE
MissionSpacecraft
Bus & MotorSOZ, Unknown motor
Mass56 kg wet, 56 kg dry
Launch date (UTC)
2007-10-26 (17 years ago)
Launch vehicleUnknown
Launch site
Tyuratam Missile And Space Complex (TTMTR)
Object type
Payload
Rocket body
Debris
Shape & HBRCyl, 1.1 m
Radar Cross Section0.660 m², Medium (>0.1 m² and < 1m²)

Expand to show TLE details & history

TLE from 2 days ago
0 SL-12 R/B(AUX MOTOR)
1 32281U 07052G   24359.79275444  .00000117  00000-0  67850-3 0  9993
2 32281  65.3379 129.8920 5643162 229.6529  65.5802  4.23672018265062
Epoch: 2024-12-24T19:01Z
Definitive object data (Epoch: 2024-12-24T19:01:33.983Z)
Latitude-0.00003°
Longitude110.69948°
Altitude10,969.237 km
Speed4.61 km/s
True Right ascension08h 39m 32s
True Declination0° 00' 00"
Sunlit
Object was in daylight at TLE epoch
Visualization TLE readout
Latitude18.02365°
Longitude118.69482°
Altitude15,206.631 km
Speed3.497 km/s
Apparent Right ascension08h 46m 26s
Apparent Declination9° 11' 06"
Sunlit
Object is in daylight
Visualization observer readout
Local Sidereal Time10:35:23
Azimuth225.708° WSW
Elevation50.861°
Doppler factor1
Orbital elements
Apogee altitude18,857.19 km
Perigee altitude650.252 km
Semi-major axis16,131.858 km
Eccentricity0.5643162
Inclination65.3379°
RAAN129.892°
Arg. of periapsis229.6529°
True anomaly130.42645°
Mean anomaly65.5802°
Eccentric anomaly97.62708°
Mean motion1.05929 °/min
BSTAR0.0006785
Orbital period339.85 mins
Loading maneuver chart data...
Loading historical data...
Loading historical data...
Loading historical data...
Loading historical data...
Loading historical data...
Loading historical data...
Loading historical data...

SL-12 R/B(AUX MOTOR) Visibility forecast

Observer location: undefined°, undefined

Span
Click to sort rows by Start time (UTC) header in descending order
Start Az.
Max El. time (UTC)
Max El. Az.
Max El.
End time (UTC)
End Az.
210 mins2024-12-26 11:14:04.822Z225.666° WSW2024-12-26 12:29:04.822Z290.642° WNW42.735°2024-12-26 14:44:04.822Z58.622° ENE
114 mins2024-12-26 18:50:04.822Z321.916° NNW2024-12-26 20:30:04.822Z258.698° W43.518°2024-12-26 20:44:04.822Z173.01° S
121 mins2024-12-27 04:50:04.822Z68.691° E2024-12-27 05:57:04.822Z47.461° ENE18.3°2024-12-27 06:51:04.822Z27.462° NE
129 mins2024-12-27 09:05:04.822Z185.274° SSW2024-12-27 10:56:04.822Z274.419° WNW44.939°2024-12-27 11:14:04.822Z337.989° N
|